Regional Weather Roundup
Issued by NWS Tiyan, Guam

Home | Current Version | Previous Version | Text Only | Print | Product List | Glossary On
Versions: 1 2 3 4 5 6 7 8 9 10 11 12 13 14 15 16 17 18 19 20 21 22 23 24 25 26 27
000
ASGM40 PGUM 161012
RWRGUM
WEATHER ROUNDUP FOR THE MARIANAS
NATIONAL WEATHER SERVICE TIYAN GU
800 PM GSST WED APR 16 2014

GUZ001>004-161100-
MARIANA ISLANDS-

CITY           SKY/WX    TMP DP  RH WIND       PRES   REMARKS
GUAM AIRPORT   CLEAR     82  77  83 E7        29.82R HX  91
ANDERSEN AFB   PTCLDY    81  75  83 NE10      29.82R
ROTA AIRPORT   PTCLDY    79  75  89 E12       29.82R
TINIAN AP      MOCLDY    79  75  89 NE14      29.80R
SAIPAN AP      MOCLDY    77  75  94 NE15G23   29.81R

$$




USA.gov is the U.S. government's official web portal to all federal, state and local government web resources and services.